DC4AT Weather Reports


Display with metric or nautical units.
time (UTC)temp
F
wind
direction
speed
MPH
gust
MPH
rain 1hr
in
rain 24hr
in
rain mn
in
humidity
%
barometer
mb
20260904094712 70 292 6.0 12.0 0.00 0.09 0.00 83 1010.9
20260904093712 69 186 7.0 14.0 0.00 0.09 0.00 83 1010.9
20260904092712 69 275 7.0 12.0 0.00 0.09 0.00 83 1011.0
20260904091712 69 273 6.0 13.0 0.00 0.09 0.00 83 1011.1
20260904090712 69 267 4.0 10.0 0.00 0.09 0.00 83 1011.3
20260904085712 68 325 4.0 11.0 0.00 0.09 0.00 84 1011.4
20260904084712 68 346 3.0 8.0 0.00 0.09 0.00 84 1011.6
20260904083712 68 296 2.0 5.0 0.00 0.09 0.00 84 1011.4
20260904082712 68 309 3.0 7.0 0.00 0.09 0.00 84 1011.6
20260904081712 68 291 3.0 7.0 0.00 0.09 0.00 84 1011.7
20260904080712 68 225 4.0 9.0 0.00 0.09 0.00 84 1011.8
20260904075713 68 302 5.0 11.0 0.00 0.09 0.00 84 1012.0
20260904074713 68 244 5.0 10.0 0.00 0.09 0.00 84 1011.9
20260904073713 68 302 6.0 9.0 0.00 0.09 0.00 84 1012.0
20260904072713 68 268 6.0 10.0 0.00 0.09 0.00 84 1012.0
20260904071713 67 263 4.0 9.0 0.00 0.09 0.00 85 1012.0
20260904070713 67 272 4.0 8.0 0.00 0.09 0.00 85 1012.1
20260904065713 67 203 3.0 8.0 0.00 0.09 0.00 86 1012.4
20260904064713 66 325 3.0 6.0 0.00 0.09 0.00 86 1012.5
20260904063713 66 172 1.0 5.0 0.00 0.09 0.00 86 1012.6
20260904062713 66 286 3.0 7.0 0.00 0.09 0.00 86 1012.8
20260904061713 66 234 3.0 6.0 0.00 0.09 0.00 86 1012.8
20260904060713 66 286 2.0 7.0 0.00 0.09 0.00 86 1012.8
20260904055713 65 280 3.0 7.0 0.00 0.09 0.00 86 1012.9
20260904054713 65 187 3.0 9.0 0.00 0.09 0.00 86 1013.0
20260904053713 65 289 2.0 6.0 0.00 0.09 0.00 86 1013.2
20260904052713 65 266 2.0 6.0 0.00 0.09 0.00 85 1013.2
20260904051713 65 288 3.0 7.0 0.00 0.09 0.00 85 1013.3
20260904050713 65 277 4.0 9.0 0.00 0.09 0.00 85 1013.2
20260904045713 65 276 6.0 8.0 0.00 0.09 0.00 85 1013.1
20260904044713 65 250 7.0 12.0 0.00 0.09 0.00 85 1013.3
20260904043713 64 292 6.0 12.0 0.00 0.09 0.00 85 1013.3
20260904042713 64 306 5.0 10.0 0.00 0.09 0.00 85 1013.5
20260904041713 64 259 4.0 9.0 0.00 0.09 0.00 85 1013.5
20260904040713 64 292 3.0 7.0 0.00 0.09 0.00 85 1013.6
20260904035713 64 294 2.0 9.0 0.00 0.09 0.00 85 1013.7
20260904034713 64 288 4.0 8.0 0.00 0.09 0.00 85 1013.9
20260904033713 64 282 3.0 7.0 0.00 0.09 0.00 85 1014.0
20260904032713 64 338 4.0 7.0 0.00 0.09 0.00 85 1014.0
20260904031713 64 325 6.0 10.0 0.00 0.09 0.00 85 1014.1
20260904030713 64 301 3.0 10.0 0.00 0.09 0.00 85 1014.2
20260904025714 64 259 3.0 8.0 0.00 0.09 0.00 85 1014.4
20260904024713 64 243 3.0 6.0 0.00 0.09 0.00 85 1014.5
20260904023713 64 284 3.0 8.0 0.00 0.09 0.00 85 1014.7
20260904022713 64 342 4.0 8.0 0.00 0.09 0.00 86 1014.7
20260904021713 64 291 2.0 7.0 0.00 0.09 0.00 86 1014.9
20260904020713 63 286 2.0 6.0 0.00 0.09 0.00 86 1014.9
20260904015713 63 291 1.0 6.0 0.00 0.09 0.00 85 1015.0
20260904014713 63 268 1.0 6.0 0.00 0.09 0.00 85 1015.2
20260904013713 62 122 1.0 5.0 0.00 0.09 0.00 86 1015.1
20260904012713 62 78 0.0 2.0 0.00 0.09 0.00 86 1015.2
20260904011713 62 78 0.0 2.0 0.00 0.09 0.00 86 1015.5
20260904010713 63 78 1.0 0.0 0.00 0.09 0.00 86 1015.7
20260904005713 63 79 1.0 3.0 0.00 0.09 0.00 86 1015.6
20260904004713 63 78 1.0 4.0 0.00 0.09 0.00 86 1015.7
20260904003713 63 239 1.0 2.0 0.00 0.09 0.00 86 1015.8
20260904002713 63 57 1.0 3.0 0.00 0.09 0.00 86 1015.9
20260904001714 64 311 0.0 0.0 0.00 0.09 0.00 86 1016.1
20260904000714 64 312 0.0 2.0 0.00 0.09 0.00 85 1016.1
20260903235714 64 233 0.0 0.0 0.00 0.09 0.00 85 1016.5
20260903234714 64 235 2.0 3.0 0.00 0.09 0.00 86 1016.5
20260903233714 64 230 0.0 2.0 0.00 0.09 0.00 86 1016.7
20260903232714 64 229 0.0 2.0 0.00 0.09 0.00 86 1016.6
20260903231714 64 228 0.0 3.0 0.00 0.09 0.00 86 1016.6
20260903230714 64 289 0.0 3.0 0.00 0.09 0.00 86 1016.8
20260903225714 64 289 1.0 4.0 0.00 0.09 0.00 86 1016.9
20260903224714 64 271 0.0 0.0 0.00 0.09 0.00 86 1017.1
20260903223714 64 272 0.0 1.0 0.00 0.09 0.00 86 1017.0
20260903222714 64 240 0.0 0.0 0.00 0.09 0.00 86 1017.0
20260903221714 64 240 0.0 0.0 0.00 0.09 0.00 86 1017.1
20260903220714 64 239 0.0 0.0 0.00 0.09 0.09 86 1017.1
20260903215714 64 240 1.0 2.0 0.00 0.09 0.09 86 1017.1
20260903214714 64 287 0.0 4.0 0.00 0.09 0.09 86 1017.1
20260903213714 64 244 0.0 2.0 0.00 0.09 0.09 86 1017.1
20260903212714 64 291 1.0 3.0 0.00 0.09 0.09 86 1017.1
20260903211714 64 273 1.0 4.0 0.00 0.09 0.09 86 1017.3
20260903210714 64 304 0.0 3.0 0.00 0.09 0.09 86 1017.1
20260903205714 64 336 0.0 3.0 0.00 0.09 0.09 86 1016.9
20260903204714 64 303 0.0 4.0 0.00 0.09 0.09 86 1016.8
20260903203714 64 266 0.0 2.0 0.00 0.09 0.09 85 1017.0
20260903202714 64 284 1.0 4.0 0.00 0.09 0.09 86 1017.0
20260903201714 64 282 1.0 3.0 0.00 0.09 0.09 86 1016.9
20260903200714 64 277 0.0 4.0 0.00 0.09 0.09 86 1017.0
20260903195714 63 320 0.0 3.0 0.00 0.09 0.09 85 1016.9
20260903194714 63 342 0.0 2.0 0.00 0.09 0.09 85 1017.0
20260903193714 63 26 0.0 0.0 0.00 0.09 0.09 86 1017.0
20260903192714 63 287 0.0 0.0 0.00 0.09 0.09 86 1017.2
20260903191714 63 194 0.0 1.0 0.00 0.09 0.09 86 1017.2
20260903190714 64 312 0.0 0.0 0.00 0.09 0.09 86 1017.3
20260903185714 64 312 0.0 2.0 0.00 0.09 0.09 86 1017.3
20260903184714 64 312 0.0 2.0 0.00 0.09 0.09 86 1017.2
20260903183714 64 312 1.0 3.0 0.00 0.09 0.09 86 1017.1
20260903182714 64 107 0.0 1.0 0.00 0.09 0.09 86 1017.0
20260903181714 64 98 0.0 2.0 0.00 0.09 0.09 86 1016.9
20260903180714 64 36 0.0 2.0 0.00 0.09 0.09 86 1016.9
20260903175714 65 340 0.0 3.0 0.00 0.09 0.09 86 1017.0
20260903174714 65 310 0.0 3.0 0.00 0.09 0.09 86 1017.0
20260903173714 65 36 1.0 2.0 0.00 0.09 0.09 85 1016.9
20260903172714 65 285 1.0 4.0 0.00 0.09 0.09 85 1016.9
20260903171714 64 66 1.0 5.0 0.00 0.09 0.09 85 1017.0
20260903170714 64 117 1.0 6.0 0.00 0.09 0.09 85 1016.9
20260903165715 64 311 1.0 3.0 0.00 0.09 0.09 85 1017.0
20260903164714 64 277 0.0 1.0 0.00 0.09 0.09 85 1016.9
20260903163714 64 276 0.0 0.0 0.00 0.09 0.09 84 1017.0
20260903162715 64 273 0.0 2.0 0.00 0.09 0.09 84 1017.1
20260903161715 63 355 0.0 5.0 0.00 0.09 0.09 84 1017.1
20260903160715 63 128 0.0 3.0 0.00 0.09 0.09 83 1017.0
20260903155715 63 234 0.0 1.0 0.00 0.09 0.09 83 1017.1
20260903154715 63 156 0.0 0.0 0.00 0.09 0.09 83 1017.0
20260903153715 63 294 3.0 4.0 0.00 0.09 0.09 83 1017.1
20260903152715 63 237 5.0 10.0 0.00 0.09 0.09 84 1017.3
20260903151715 63 243 5.0 9.0 0.00 0.09 0.09 85 1017.3
20260903150715 63 283 4.0 10.0 0.00 0.09 0.09 85 1017.3
20260903145715 63 303 1.0 6.0 0.00 0.09 0.09 85 1017.2
20260903144715 63 263 1.0 8.0 0.00 0.09 0.09 84 1017.3
20260903143715 63 310 3.0 5.0 0.00 0.09 0.09 83 1017.3
20260903142715 62 208 5.0 12.0 0.00 0.09 0.09 84 1017.4
20260903141715 62 238 4.0 9.0 0.00 0.09 0.09 84 1017.3
20260903140715 62 271 7.0 9.0 0.00 0.09 0.09 84 1017.2
20260903135715 62 238 8.0 11.0 0.00 0.09 0.09 84 1017.3
20260903134715 61 273 9.0 12.0 0.00 0.09 0.09 84 1017.4
20260903133715 61 263 9.0 13.0 0.00 0.09 0.09 84 1017.4
20260903132715 61 268 10.0 16.0 0.00 0.09 0.09 85 1017.3
20260903131715 62 306 9.0 14.0 0.00 0.09 0.09 85 1017.3
20260903130715 62 288 8.0 16.0 0.00 0.09 0.09 85 1017.3
20260903125715 62 258 8.0 13.0 0.00 0.09 0.09 86 1017.4
20260903124715 62 272 7.0 12.0 0.02 0.09 0.09 85 1017.3
20260903123715 63 232 10.0 19.0 0.02 0.09 0.09 85 1017.1
20260903122715 63 253 9.0 19.0 0.07 0.09 0.09 85 1017.0
20260903121715 63 225 6.0 10.0 0.09 0.09 0.09 85 1017.0
20260903120715 63 238 8.0 12.0 0.09 0.09 0.09 85 1017.1
20260903115715 64 261 9.0 17.0 0.09 0.09 0.09 84 1016.9
20260903114715 64 229 4.0 13.0 0.07 0.07 0.07 83 1017.0
20260903113715 65 236 4.0 8.0 0.07 0.07 0.07 81 1017.0
20260903112715 68 234 8.0 18.0 0.02 0.02 0.02 73 1016.8
20260903111715 69 233 10.0 17.0 0.00 0.00 0.00 67 1016.6
20260903110715 69 243 8.0 13.0 0.00 0.00 0.00 66 1016.4
20260903105715 69 281 5.0 11.0 0.00 0.00 0.00 67 1016.4
20260903104715 68 263 6.0 10.0 0.00 0.00 0.00 66 1016.6
20260903103715 68 244 7.0 14.0 0.00 0.00 0.00 67 1016.9
20260903102715 67 240 8.0 14.0 0.00 0.00 0.00 66 1017.1
20260903101715 67 271 9.0 14.0 0.00 0.00 0.00 66 1017.2
20260903100715 67 225 10.0 18.0 0.00 0.00 0.00 66 1017.2
20260903095715 67 258 9.0 15.0 0.00 0.00 0.00 66 1017.1